星链-3639 (STARLINK-3639 )

导读

STARLINK-3639是美国太空探索技术公司Starlink卫星互联网项目的一员,于2022年2月25日发射升空,属于星链星座的低轨组网卫星,运行在近地轨道,为全球提供宽带互联网接入服务,该卫星延续了星链批量部署、低轨组网的建设方向,是星链星座构建全球卫星互联网网络的其中一环,助力星链完成全球覆盖的组网目标。

基本信息
目录编号:
51789
目录名称:
STARLINK-3639
国际标识:
2022-017X
轨道中心:
EARTH
卫星名称:
星链-3639
卫星全名:
星链-3639 (STARLINK-3639 )
卫星状态:
在轨 (已飞行1573 天)
发射日期:
2022-02-25 UTC
国别 :
美国 (US)
星等 :
--
轨道信息
数据来源 国际轨道数据
星历时间: 2026-06-17T19:37:15+0800
5小时前
查看轨道信息
半长轴: 6917.916km
偏心率: 0.0001291
轨道倾角: 53.160°
近地点辐角 86.554°
升交点赤经 261.027°
平近点角 273.560°
近地点: 538.885km
远地点: 540.673km
周期: 95.438分钟
每日圈数: 15.088285
详细信息
固有亮度:
5
最大亮度:
2.5
卫星平台:
Starlink v1.5
覆盖范围:
全球
运营商:
太空探索技术公司
运营商所在国:
美国
制造商(研发单位):
太空探索技术公司
制造商所在国:
美国
使用方式:
暂无
卫星简介
星链(Starlink)计划是由太空探索技术公司(SpaceX)提出的一个巨型低轨卫星互联网星座项目,计划在2019年至2024年间在太空搭建由约1.2万颗卫星组成的“星链”网络,其中1584颗将部署在地球上空550千米处的近地轨道,并从2020年开始工作。该卫星仍在工作。
2D轨道图
3D轨道图
轨道高度分析图
轨道倾角分析图
轨道综合分析图
查看轨道综合分析图